This is the latest recevied weather packets stored in our database for station/object KC5TIL. If no packets are shown the sender has not sent any weather packets the latest 10 day(s).
| Time | Temp. | Humidity | Pressure | Rain* | Wind** | Luminosity | Snow |
|---|---|---|---|---|---|---|---|
| 1778005810 | 30.56° C | 62% | 1005.8 hPa | 0 mm | - | 530 W/m² | - |
| 1778005507 | 30.56° C | 61% | 1005.9 hPa | 0 mm | - | 635 W/m² | - |
| 1778005203 | 30.56° C | 60% | 1005.8 hPa | 0 mm | - | 686 W/m² | - |
| 1778004900 | 30.56° C | 62% | 1005.9 hPa | 0 mm | - | 602 W/m² | - |
| 1778004597 | 30° C | 62% | 1006 hPa | 0 mm | - | 718 W/m² | - |
| 1778004293 | 30° C | 63% | 1006.1 hPa | 0 mm | - | 565 W/m² | - |
| 1778003990 | 30° C | 62% | 1006.1 hPa | 0 mm | - | 555 W/m² | - |
| 1778003686 | 30° C | 63% | 1006.1 hPa | 0 mm | - | 509 W/m² | - |
| 1778003383 | 29.44° C | 63% | 1006.1 hPa | 0 mm | - | 540 W/m² | - |
| 1778003080 | 29.44° C | 64% | 1006.3 hPa | 0 mm | - | 568 W/m² | - |
| 1778002776 | 30° C | 63% | 1006.2 hPa | 0 mm | - | 469 W/m² | - |
| 1778002472 | 30° C | 63% | 1006.1 hPa | 0 mm | - | 753 W/m² | - |
| 1778002170 | 29.44° C | 64% | 1006.2 hPa | 0 mm | - | 596 W/m² | - |
| 1778001868 | 28.89° C | 66% | 1006.2 hPa | 0 mm | - | 586 W/m² | - |
| 1778001567 | 28.33° C | 67% | 1006.2 hPa | 0 mm | - | 512 W/m² | - |
| 1778001264 | 28.33° C | 67% | 1006.3 hPa | 0 mm | - | 353 W/m² | - |
| 1778000961 | 28.33° C | 67% | 1006.3 hPa | 0 mm | - | 335 W/m² | - |
| 1778000657 | 28.89° C | 66% | 1006.3 hPa | 0 mm | - | 348 W/m² | - |
| 1778000353 | 28.89° C | 65% | 1006.3 hPa | 0 mm | - | 418 W/m² | - |
| 1778000049 | 28.89° C | 65% | 1006.5 hPa | 0 mm | - | 456 W/m² | - |
| 1777999744 | 28.89° C | 66% | 1006.4 hPa | 0 mm | - | 606 W/m² | - |
| 1777999441 | 28.89° C | 66% | 1006.4 hPa | 0 mm | - | 657 W/m² | - |
| 1777999140 | 28.33° C | 67% | 1006.4 hPa | 0 mm | - | 659 W/m² | - |
| 1777998838 | 28.33° C | 68% | 1006.2 hPa | 0 mm | - | 629 W/m² | - |
| 1777998536 | 28.33° C | 68% | 1005.8 hPa | 0 mm | - | 575 W/m² | - |
* Rain latest hour (hover to see other rain measurements)
** Current wind speed in m/s (hover to see current wind gust speed)